Weather History for KDEN - September, 2011

Change the Weather History Date:

Thursday, September 8, 2011

  Actual Average Record
Temperature  
Mean Temperature 63 °F 67 °F  
Max Temperature 76 °F 82 °F 94 °F (1959)
Min Temperature 50 °F 51 °F 31 °F (1962)
Degree Days  
Heating Degree Days 2 2  
Month to date heating degree days 20 13  
Since 1 July heating degree days 20 29  
Cooling Degree Days 0 4  
Month to date cooling degree days 31 36  
Year to date cooling degree days 894 724  
Growing Degree Days 13 (Base 50)    
Moisture  
Dew Point 43 °F    
Average Humidity 57    
Maximum Humidity 89    
Minimum Humidity 25    
Precipitation  
Precipitation 0.00 in 0.04 in 0.88 in (1894)
Month to date precipitation 0.27 0.27  
Year to date precipitation 13.65 11.63  
Snow  
Snow 0.00 in - - ()
Month to date snowfall 0  
Since 1 July snowfall 0  
Since 1 September snowfall 0  
Snow Depth 0.00 in    
Sea Level Pressure  
Sea Level Pressure 30.25 in    
Wind  
Wind Speed 6 mph (SSE)    
Max Wind Speed 14 mph    
Max Gust Speed 22 mph    
Visibility 8 miles    
Events      
T = Trace of Precipitation, MM = Missing Value Source: NWS Daily Summary

Daily Weather History Graph

Daily Weather History Graph

Search for Another Location

Airport or City:

Trip Planner

Search our weather history database for the weather conditions in past years. The results will help you decide how hot, cold, wet, or windy it might be!

Date:

Astronomy

Sep. 08, 2011 Rise Set
Actual Time 6:32 AM MDT 7:19 PM MDT
Civil Twilight 6:05 AM MDT 7:46 PM MDT
Nautical Twilight 5:33 AM MDT 8:18 PM MDT
Astronomical Twilight 4:59 AM MDT 8:52 PM MDT
Moon 5:14 PM MDT (9/8) 2:54 AM MDT (9/8)
Length of Visible Light 13h 40m
Length of Day
12h 46m
Waxing Gibbous, 88% of the Moon is Illuminated
Sep 8
Waxing Gibbous
Sep 12
Full
Sep 20
Last Quarter
Sep 27
New
Oct 3
First Quarter

Hourly Weather History & Observations

Time (MDT) Temp. Dew Point Humidity Pressure Visibility Wind Dir Wind Speed Gust Speed Precip Events Conditions
12:53 AM 53.1 °F 48.9 °F 86% 30.33 in 5.0 mi South 3.5 mph - N/A   Overcast
1:53 AM 53.1 °F 48.9 °F 86% 30.32 in 4.0 mi SSW 4.6 mph - N/A   Mostly Cloudy
2:53 AM 51.1 °F 48.0 °F 89% 30.33 in 4.0 mi SSE 5.8 mph - N/A   Overcast
3:53 AM 51.1 °F 48.9 °F 92% 30.32 in 4.0 mi SE 5.8 mph - N/A   Overcast
4:53 AM 51.1 °F 48.0 °F 89% 30.31 in 5.0 mi SE 4.6 mph - N/A   Mostly Cloudy
5:53 AM 51.1 °F 46.9 °F 86% 30.31 in 6.0 mi Calm Calm - N/A   Scattered Clouds
6:53 AM 53.1 °F 46.9 °F 80% 30.31 in 10.0 mi WSW 8.1 mph - N/A   Mostly Cloudy
7:53 AM 55.0 °F 48.0 °F 77% 30.31 in 10.0 mi WSW 6.9 mph - N/A   Mostly Cloudy
8:53 AM 57.0 °F 50.0 °F 77% 30.32 in 6.0 mi Calm Calm - N/A   Haze
9:53 AM 59.0 °F 50.0 °F 72% 30.31 in 5.0 mi WSW 3.5 mph - N/A   Haze
10:53 AM 64.9 °F 48.0 °F 54% 30.29 in 10.0 mi ENE 3.5 mph - N/A   Mostly Cloudy
11:53 AM 70.0 °F 42.1 °F 36% 30.25 in 10.0 mi Variable 4.6 mph - N/A   Mostly Cloudy
12:53 PM 72.0 °F 41.0 °F 33% 30.23 in 10.0 mi SE 8.1 mph 18.4 mph N/A   Mostly Cloudy
1:53 PM 73.4 °F 37.4 °F 27% 30.38 in 10.0 mi South 6.9 mph - N/A   Mostly Cloudy
2:53 PM 75.0 °F 37.0 °F 25% 30.18 in 10.0 mi Variable 4.6 mph - N/A   Mostly Cloudy
3:53 PM 73.9 °F 36.0 °F 25% 30.15 in 10.0 mi Variable 6.9 mph - N/A   Mostly Cloudy
4:53 PM 73.9 °F 37.0 °F 26% 30.14 in 10.0 mi East 9.2 mph - N/A   Mostly Cloudy
5:53 PM 73.0 °F 36.0 °F 26% 30.14 in 10.0 mi ESE 6.9 mph - N/A   Scattered Clouds
6:53 PM 66.9 °F 39.0 °F 36% 30.15 in 10.0 mi ESE 6.9 mph - N/A   Scattered Clouds
7:53 PM 62.1 °F 39.0 °F 43% 30.16 in 10.0 mi SE 6.9 mph - N/A   Scattered Clouds
8:53 PM 57.9 °F 41.0 °F 53% 30.18 in 10.0 mi SSE 9.2 mph - N/A   Scattered Clouds
9:53 PM 55.9 °F 42.1 °F 60% 30.18 in 10.0 mi SSE 9.2 mph - N/A   Scattered Clouds
10:53 PM 54.0 °F 42.1 °F 64% 30.17 in 10.0 mi SSE 10.4 mph - N/A   Scattered Clouds
11:53 PM 57.0 °F 41.0 °F 55% 30.14 in 10.0 mi SSW 9.2 mph - N/A   Scattered Clouds